Time,TemperatureF,DewpointF,PressureIn,WindDirection,WindDirectionDegrees,WindSpeedMPH,WindSpeedGustMPH,Humidity,HourlyPrecipIn,Conditions,Clouds,dailyrainin,SolarRadiationWatts/m^2,SoftwareType,DateUTC
2013-01-13 00:11:00,38.4,37.0,29.72,NE,34,3.0,16.0,93,0.14,,,0.48,0,weatherlink.com 1.10,2013-01-13 05:11:00,
2013-01-13 00:26:00,38.4,37.0,29.74,NNE,16,4.0,12.0,94,0.12,,,0.50,0,weatherlink.com 1.10,2013-01-13 05:26:00,
2013-01-13 00:41:00,38.3,37.0,29.71,NNE,17,13.0,17.0,94,0.11,,,0.53,0,weatherlink.com 1.10,2013-01-13 05:41:00,
2013-01-13 00:56:00,38.3,37.0,29.73,NE,36,9.0,14.0,93,0.09,,,0.54,0,weatherlink.com 1.10,2013-01-13 05:56:00,
2013-01-13 01:11:00,38.2,36.0,29.75,WSW,238,7.0,15.0,93,0.09,,,0.57,0,weatherlink.com 1.10,2013-01-13 06:11:00,
2013-01-13 01:26:00,38.2,36.0,29.76,NNE,15,2.0,10.0,93,0.10,,,0.61,0,weatherlink.com 1.10,2013-01-13 06:26:00,
2013-01-13 01:41:00,37.9,36.0,29.74,North,354,5.0,11.0,94,0.12,,,0.65,0,weatherlink.com 1.10,2013-01-13 06:41:00,
2013-01-13 01:56:00,37.6,36.0,29.73,NE,43,5.0,11.0,94,0.15,,,0.69,0,weatherlink.com 1.10,2013-01-13 06:56:00,
2013-01-13 02:11:00,37.4,36.0,29.73,North,4,3.0,10.0,94,0.17,,,0.74,0,weatherlink.com 1.10,2013-01-13 07:11:00,
2013-01-13 02:26:00,37.1,36.0,29.75,NNW,343,6.0,16.0,94,0.14,,,0.76,0,weatherlink.com 1.10,2013-01-13 07:26:00,
2013-01-13 02:42:00,37.1,36.0,29.77,WNW,287,6.0,12.0,94,0.11,,,0.76,0,weatherlink.com 1.10,2013-01-13 07:42:00,
2013-01-13 02:57:00,36.7,34.0,29.77,NW,306,2.0,15.0,91,0.07,,,0.76,0,weatherlink.com 1.10,2013-01-13 07:57:00,
2013-01-13 03:12:00,36.5,34.0,29.77,NNW,344,9.0,11.0,91,0.02,,,0.76,0,weatherlink.com 1.10,2013-01-13 08:12:00,
2013-01-13 03:27:00,36.4,34.0,29.76,North,4,6.0,13.0,91,0.00,,,0.76,0,weatherlink.com 1.10,2013-01-13 08:27:00,
2013-01-13 03:42:00,36.2,34.0,29.77,North,4,7.0,11.0,92,0.00,,,0.76,0,weatherlink.com 1.10,2013-01-13 08:42:00,
2013-01-13 03:57:00,36.1,34.0,29.75,NNE,12,1.0,11.0,91,0.00,,,0.76,0,weatherlink.com 1.10,2013-01-13 08:57:00,
2013-01-13 04:12:00,36.1,34.0,29.78,NE,35,6.0,11.0,90,0.00,,,0.76,0,weatherlink.com 1.10,2013-01-13 09:12:00,
2013-01-13 04:27:00,36.2,34.0,29.78,NE,39,4.0,10.0,90,0.00,,,0.76,0,weatherlink.com 1.10,2013-01-13 09:27:00,
2013-01-13 04:42:00,36.0,33.0,29.77,North,354,7.0,14.0,89,0.00,,,0.76,0,weatherlink.com 1.10,2013-01-13 09:42:00,
2013-01-13 04:57:00,35.5,33.0,29.77,NNE,23,4.0,12.0,91,0.00,,,0.76,0,weatherlink.com 1.10,2013-01-13 09:57:00,
2013-01-13 05:12:00,35.3,33.0,29.75,NE,49,8.0,10.0,92,0.00,,,0.76,0,weatherlink.com 1.10,2013-01-13 10:12:00,
2013-01-13 05:27:00,35.4,34.0,29.77,North,9,4.0,8.0,93,0.00,,,0.76,0,weatherlink.com 1.10,2013-01-13 10:27:00,
2013-01-13 05:42:00,35.7,34.0,29.77,NE,45,2.0,7.0,93,0.00,,,0.00,0,weatherlink.com 1.10,2013-01-13 10:42:00,
2013-01-13 05:57:00,35.7,34.0,29.78,NNW,347,3.0,7.0,92,0.00,,,0.00,0,weatherlink.com 1.10,2013-01-13 10:57:00,
2013-01-13 06:12:00,35.8,34.0,29.78,NNE,14,2.0,5.0,92,0.00,,,0.00,0,weatherlink.com 1.10,2013-01-13 11:12:00,
2013-01-13 06:27:00,35.7,34.0,29.78,NNE,14,4.0,5.0,93,0.00,,,0.00,0,weatherlink.com 1.10,2013-01-13 11:27:00,
2013-01-13 06:42:00,35.9,34.0,29.80,North,4,1.0,3.0,93,0.00,,,0.00,0,weatherlink.com 1.10,2013-01-13 11:42:00,
2013-01-13 06:57:00,36.0,34.0,29.82,WNW,301,2.0,5.0,92,0.00,,,0.00,0,weatherlink.com 1.10,2013-01-13 11:57:00,
2013-01-13 07:12:00,35.9,34.0,29.84,WNW,288,3.0,6.0,93,0.00,,,0.00,0,weatherlink.com 1.10,2013-01-13 12:12:00,
2013-01-13 07:27:00,35.6,34.0,29.85,West,267,5.0,9.0,94,0.00,,,0.00,0,weatherlink.com 1.10,2013-01-13 12:27:00,
2013-01-13 07:42:00,35.5,34.0,29.85,NW,310,3.0,8.0,94,0.00,,,0.00,0,weatherlink.com 1.10,2013-01-13 12:42:00,
2013-01-13 07:57:00,35.2,34.0,29.83,WNW,301,2.0,6.0,95,0.01,,,0.01,0,weatherlink.com 1.10,2013-01-13 12:57:00,
2013-01-13 08:12:00,35.2,34.0,29.84,NW,318,7.0,9.0,95,0.01,,,0.01,0,weatherlink.com 1.10,2013-01-13 13:12:00,
2013-01-13 08:27:00,35.3,34.0,29.84,WNW,282,3.0,7.0,95,0.01,,,0.01,5,weatherlink.com 1.10,2013-01-13 13:27:00,
2013-01-13 08:42:00,35.4,34.0,29.84,WNW,296,5.0,8.0,96,0.01,,,0.01,14,weatherlink.com 1.10,2013-01-13 13:42:00,
2013-01-13 08:57:00,35.4,34.0,29.86,NNW,330,3.0,11.0,96,0.00,,,0.01,14,weatherlink.com 1.10,2013-01-13 13:57:00,
2013-01-13 09:12:00,35.6,35.0,29.85,North,354,4.0,10.0,96,0.00,,,0.01,21,weatherlink.com 1.10,2013-01-13 14:12:00,
2013-01-13 09:27:00,35.7,35.0,29.87,WNW,301,4.0,11.0,96,0.00,,,0.01,16,weatherlink.com 1.10,2013-01-13 14:27:00,
2013-01-13 09:42:00,35.7,35.0,29.87,WNW,292,4.0,8.0,96,0.00,,,0.01,28,weatherlink.com 1.10,2013-01-13 14:42:00,
2013-01-13 09:57:00,35.9,35.0,29.87,WNW,299,4.0,7.0,96,0.00,,,0.01,35,weatherlink.com 1.10,2013-01-13 14:57:00,
2013-01-13 10:12:00,36.0,35.0,29.88,NW,307,5.0,7.0,96,0.00,,,0.01,33,weatherlink.com 1.10,2013-01-13 15:12:00,
2013-01-13 10:27:00,36.0,35.0,29.88,NW,311,8.0,11.0,96,0.00,,,0.01,37,weatherlink.com 1.10,2013-01-13 15:27:00,
2013-01-13 10:43:00,36.2,35.0,29.85,North,4,5.0,8.0,96,0.00,,,0.01,58,weatherlink.com 1.10,2013-01-13 15:43:00,
2013-01-13 10:58:00,34.9,34.0,29.85,NW,305,2.0,11.0,95,0.00,,,0.01,39,weatherlink.com 1.10,2013-01-13 15:58:00,
2013-01-13 11:13:00,34.3,33.0,29.89,WNW,298,12.0,12.0,95,0.00,,,0.01,46,weatherlink.com 1.10,2013-01-13 16:13:00,
2013-01-13 11:28:00,34.0,33.0,29.91,WNW,294,11.0,15.0,95,0.00,,,0.01,33,weatherlink.com 1.10,2013-01-13 16:28:00,
2013-01-13 11:43:00,33.7,33.0,29.91,WNW,297,10.0,17.0,96,0.00,,,0.01,46,weatherlink.com 1.10,2013-01-13 16:43:00,
2013-01-13 11:58:00,33.5,33.0,29.89,NW,314,5.0,16.0,96,0.00,,,0.01,67,weatherlink.com 1.10,2013-01-13 16:58:00,
2013-01-13 12:13:00,33.1,32.0,29.86,WNW,300,3.0,10.0,95,0.00,,,0.01,70,weatherlink.com 1.10,2013-01-13 17:13:00,
2013-01-13 12:28:00,32.6,31.0,29.85,North,354,4.0,9.0,95,0.00,,,0.01,104,weatherlink.com 1.10,2013-01-13 17:28:00,
2013-01-13 12:43:00,32.6,31.0,29.85,NW,319,1.0,7.0,95,0.00,,,0.01,72,weatherlink.com 1.10,2013-01-13 17:43:00,
2013-01-13 12:58:00,32.6,31.0,29.83,NNW,339,5.0,13.0,95,0.00,,,0.01,46,weatherlink.com 1.10,2013-01-13 17:58:00,
2013-01-13 13:13:00,32.6,31.0,29.83,NW,321,6.0,9.0,95,0.00,,,0.01,49,weatherlink.com 1.10,2013-01-13 18:13:00,
2013-01-13 13:28:00,32.5,31.0,29.84,North,359,3.0,11.0,95,0.00,,,0.01,49,weatherlink.com 1.10,2013-01-13 18:28:00,
2013-01-13 13:43:00,32.5,31.0,29.86,North,8,6.0,16.0,94,0.00,,,0.01,35,weatherlink.com 1.10,2013-01-13 18:43:00,
2013-01-13 13:58:00,32.0,31.0,29.89,NW,310,4.0,20.0,94,0.02,,,0.03,23,weatherlink.com 1.10,2013-01-13 18:58:00,
2013-01-13 14:13:00,31.7,30.0,29.88,West,278,8.0,18.0,94,0.05,,,0.06,30,weatherlink.com 1.10,2013-01-13 19:13:00,
2013-01-13 14:28:00,31.6,30.0,29.89,WNW,288,7.0,16.0,94,0.08,,,0.09,23,weatherlink.com 1.10,2013-01-13 19:28:00,
2013-01-13 14:43:00,31.5,30.0,29.90,WNW,295,3.0,15.0,94,0.10,,,0.11,26,weatherlink.com 1.10,2013-01-13 19:43:00,
2013-01-13 14:58:00,31.4,30.0,29.89,NW,324,3.0,10.0,95,0.08,,,0.11,25,weatherlink.com 1.10,2013-01-13 19:58:00,
2013-01-13 15:13:00,31.2,30.0,29.89,NNW,327,2.0,9.0,94,0.05,,,0.11,28,weatherlink.com 1.10,2013-01-13 20:13:00,
2013-01-13 15:28:00,31.3,30.0,29.91,NNW,327,3.0,7.0,95,0.02,,,0.11,14,weatherlink.com 1.10,2013-01-13 20:28:00,
2013-01-13 15:43:00,31.0,30.0,29.92,NNW,327,5.0,8.0,94,0.00,,,0.11,21,weatherlink.com 1.10,2013-01-13 20:43:00,
2013-01-13 15:58:00,31.0,30.0,29.92,NNW,327,0.0,7.0,95,0.00,,,0.11,19,weatherlink.com 1.10,2013-01-13 20:58:00,
2013-01-13 16:13:00,31.1,30.0,29.91,NNW,327,3.0,4.0,95,0.00,,,0.11,30,weatherlink.com 1.10,2013-01-13 21:13:00,
2013-01-13 16:28:00,31.0,30.0,29.93,NNW,327,4.0,5.0,95,0.00,,,0.11,12,weatherlink.com 1.10,2013-01-13 21:28:00,
2013-01-13 16:43:00,30.8,30.0,29.93,NNW,327,5.0,7.0,95,0.00,,,0.11,14,weatherlink.com 1.10,2013-01-13 21:43:00,
2013-01-13 16:58:00,30.8,30.0,29.92,NNW,327,0.0,4.0,95,0.00,,,0.11,9,weatherlink.com 1.10,2013-01-13 21:58:00,
2013-01-13 17:13:00,30.6,29.0,29.94,NNW,327,5.0,9.0,95,0.00,,,0.11,9,weatherlink.com 1.10,2013-01-13 22:13:00,
2013-01-13 17:28:00,30.2,29.0,29.95,NW,326,7.0,8.0,95,0.00,,,0.11,14,weatherlink.com 1.10,2013-01-13 22:28:00,
2013-01-13 17:43:00,30.1,29.0,29.96,NW,326,7.0,9.0,95,0.00,,,0.11,0,weatherlink.com 1.10,2013-01-13 22:43:00,
2013-01-13 17:58:00,29.8,28.0,29.97,NW,326,7.0,9.0,94,0.00,,,0.11,0,weatherlink.com 1.10,2013-01-13 22:58:00,
2013-01-13 18:14:00,29.2,28.0,29.99,NW,326,4.0,11.0,94,0.00,,,0.11,0,weatherlink.com 1.10,2013-01-13 23:14:00,
2013-01-13 18:29:00,29.2,28.0,29.99,NW,326,5.0,13.0,94,0.00,,,0.11,0,weatherlink.com 1.10,2013-01-13 23:29:00,
2013-01-13 18:43:00,28.9,27.0,29.99,NW,326,5.0,12.0,93,0.00,,,0.11,0,weatherlink.com 1.10,2013-01-13 23:43:00,
2013-01-13 18:59:00,28.7,27.0,30.00,NW,326,3.0,12.0,93,0.00,,,0.11,0,weatherlink.com 1.10,2013-01-13 23:59:00,
2013-01-13 19:14:00,28.3,26.0,30.01,NW,326,4.0,12.0,92,0.00,,,0.11,0,weatherlink.com 1.10,2013-01-14 00:14:00,
2013-01-13 19:29:00,27.0,25.0,30.02,NW,326,7.0,11.0,93,0.00,,,0.11,0,weatherlink.com 1.10,2013-01-14 00:29:00,
2013-01-13 19:44:00,26.3,24.0,30.03,NW,326,3.0,14.0,92,0.00,,,0.11,0,weatherlink.com 1.10,2013-01-14 00:44:00,
2013-01-13 19:59:00,25.8,24.0,30.04,NW,326,9.0,12.0,91,0.00,,,0.11,0,weatherlink.com 1.10,2013-01-14 00:59:00,
2013-01-13 20:14:00,24.8,22.0,30.04,NW,326,9.0,13.0,90,0.00,,,0.11,0,weatherlink.com 1.10,2013-01-14 01:14:00,
2013-01-13 20:29:00,24.2,22.0,30.04,NW,326,7.0,12.0,89,0.00,,,0.11,0,weatherlink.com 1.10,2013-01-14 01:29:00,
2013-01-13 20:44:00,23.7,21.0,30.05,NW,326,6.0,14.0,88,0.00,,,0.11,0,weatherlink.com 1.10,2013-01-14 01:44:00,
2013-01-13 20:59:00,23.4,20.0,30.06,NW,326,5.0,14.0,88,0.00,,,0.11,0,weatherlink.com 1.10,2013-01-14 01:59:00,
2013-01-13 21:14:00,23.0,20.0,30.06,NW,326,6.0,13.0,88,0.00,,,0.11,0,weatherlink.com 1.10,2013-01-14 02:14:00,
2013-01-13 21:29:00,22.5,19.0,30.08,NW,326,4.0,16.0,87,0.00,,,0.11,0,weatherlink.com 1.10,2013-01-14 02:29:00,
2013-01-13 21:44:00,22.2,19.0,30.08,NW,326,9.0,13.0,88,0.00,,,0.11,0,weatherlink.com 1.10,2013-01-14 02:44:00,
2013-01-13 21:59:00,21.9,19.0,30.09,NW,326,10.0,11.0,88,0.00,,,0.11,0,weatherlink.com 1.10,2013-01-14 02:59:00,
2013-01-13 22:14:00,21.4,18.0,30.10,NW,326,5.0,14.0,87,0.00,,,0.11,0,weatherlink.com 1.10,2013-01-14 03:14:00,
2013-01-13 22:29:00,21.2,18.0,30.11,NW,326,5.0,8.0,88,0.00,,,0.11,0,weatherlink.com 1.10,2013-01-14 03:29:00,
2013-01-13 22:44:00,20.6,17.0,30.11,NW,326,7.0,14.0,87,0.00,,,0.11,0,weatherlink.com 1.10,2013-01-14 03:44:00,
2013-01-13 22:59:00,20.0,16.0,30.12,NW,326,7.0,17.0,85,0.00,,,0.11,0,weatherlink.com 1.10,2013-01-14 03:59:00,
2013-01-13 23:14:00,19.5,16.0,30.13,NW,326,10.0,14.0,85,0.00,,,0.11,0,weatherlink.com 1.10,2013-01-14 04:14:00,
2013-01-13 23:30:00,19.1,15.0,30.14,NW,326,7.0,16.0,85,0.00,,,0.11,0,weatherlink.com 1.10,2013-01-14 04:30:00,
2013-01-13 23:45:00,18.9,15.0,30.14,NW,326,6.0,12.0,85,0.00,,,0.11,0,weatherlink.com 1.10,2013-01-14 04:45:00,